BISONSAT

Last updated on Tue Jul 01 2025 00:03:44 GMT+0000 (Coordinated Universal Time)

1 40974U 15058L 25181.45361061 .00005873 00000+0 35176-3 0 9993 2 40974 64.7615 222.2168 0117225 190.8389 169.0204 15.06341372 62466
UTC large
Height (km)
Speed (km/s)
/
Latitude / Longitude
Inclination (degrees)
Orbital Period (minutes)
Azimuth
Elevation
Range (km)
Doppler Factor

Next 0 passes for location: London (51.5072 / 0.1276)

Sorry there are no passes over London.